Tracking 19831 objects as of 23-Aug-2019
HD Live streaming from Space Station
objects crossing your sky now

COSMOS 2100

Track COSMOS 2100 now!
10-day predictions
COSMOS 2100 is classified as:


NORAD ID: 20804
Int'l Code: 1990-083A
Perigee: 963.7 km
Apogee: 1,018.8 km
Inclination: 82.9 °
Period: 104.8 minutes
Semi major axis: 7362 km
RCS: 2.1376 m2 (large)
Launch date: September 14, 1990
Source: Commonwealth of Independent States (former USSR) (CIS)
Launch site: PLESETSK MISSILE AND SPACE COMPLEX (PKMTR)
aabbcc
Your satellite tracking list
Your tracking list is empty




NASA's NSSDC Master Catalog

Two Line Element Set (TLE):
1 20804U 90083A   19234.49908118 +.00000012 +00000-0 -35118-5 0  9990
2 20804 082.9389 211.8624 0037411 021.1606 098.6266 13.74326190451105
Source of the keplerian elements: AFSPC